| time (UTC) | temp F | wind direction | speed MPH | gust MPH | rain 1hr in | rain 24hr in | rain mn in | humidity % | barometer mb |
| 20260507000321 | 60 | 188 | 3.0 | 5.0 | 0.00 | 0.00 | 0.00 | 73 | 1021.5 |
| 20260506235353 | 60 | 191 | 2.0 | 5.0 | 0.00 | 0.00 | 0.00 | 73 | 1021.4 |
| 20260506234341 | 60 | 43 | 3.0 | 5.0 | 0.00 | 0.00 | 0.00 | 74 | 1021.5 |
| 20260506233350 | 59 | 178 | 0.0 | 7.0 | 0.00 | 0.00 | 0.00 | 76 | 1021.5 |
| 20260506232408 | 59 | 170 | 5.0 | 7.0 | 0.00 | 0.00 | 0.00 | 75 | 1021.6 |
| 20260506231337 | 59 | 163 | 4.0 | 8.0 | 0.00 | 0.00 | 0.00 | 74 | 1021.6 |
| 20260506230343 | 60 | 192 | 4.0 | 6.0 | 0.00 | 0.00 | 0.00 | 73 | 1021.6 |
| 20260506225318 | 61 | 204 | 4.0 | 8.0 | 0.00 | 0.00 | 0.00 | 73 | 1021.6 |
| 20260506224345 | 61 | 175 | 3.0 | 9.0 | 0.00 | 0.00 | 0.00 | 73 | 1021.7 |
| 20260506223323 | 61 | 169 | 3.0 | 7.0 | 0.00 | 0.00 | 0.00 | 74 | 1021.6 |
| 20260506222402 | 60 | 198 | 4.0 | 9.0 | 0.00 | 0.00 | 0.00 | 73 | 1021.6 |
| 20260506221318 | 61 | 196 | 4.0 | 12.0 | 0.00 | 0.00 | 0.00 | 73 | 1021.8 |
| 20260506220336 | 60 | 150 | 5.0 | 12.0 | 0.00 | 0.00 | 0.00 | 74 | 1021.9 |
| 20260506213341 | 62 | 194 | 4.0 | 14.0 | 0.00 | 0.00 | 0.00 | 73 | 1021.6 |
| 20260506212331 | 61 | 150 | 3.0 | 8.0 | 0.00 | 0.00 | 0.00 | 73 | 1021.7 |
| 20260506211318 | 61 | 183 | 2.0 | 6.0 | 0.00 | 0.00 | 0.00 | 76 | 1021.7 |
| 20260506210346 | 59 | 159 | 2.0 | 9.0 | 0.00 | 0.00 | 0.00 | 78 | 1021.9 |
| 20260506205338 | 59 | 167 | 327.0 | 327.0 | 0.00 | 0.00 | 0.00 | 79 | 1021.8 |
| 20260506204336 | 59 | 168 | 6.0 | 9.0 | 0.00 | 0.00 | 0.00 | 80 | 1021.8 |
| 20260506202320 | 59 | 213 | 4.0 | 8.0 | 0.00 | 0.00 | 0.00 | 81 | 1021.7 |
| 20260506201339 | 58 | 188 | 5.0 | 8.0 | 0.00 | 0.00 | 0.00 | 83 | 1021.7 |
| 20260506200348 | 57 | 184 | 2.0 | 7.0 | 0.00 | 0.00 | 0.00 | 83 | 1021.8 |
| 20260506195318 | 57 | 184 | 4.0 | 6.0 | 0.00 | 0.00 | 0.00 | 84 | 1021.9 |
| 20260506194355 | 57 | 211 | 3.0 | 9.0 | 0.00 | 0.00 | 0.00 | 85 | 1021.8 |
| 20260506193343 | 57 | 210 | 4.0 | 6.0 | 0.00 | 0.00 | 0.00 | 85 | 1021.6 |
| 20260506192338 | 57 | 195 | 3.0 | 6.0 | 0.00 | 0.00 | 0.00 | 86 | 1021.5 |
| 20260506191327 | 57 | 182 | 3.0 | 7.0 | 0.00 | 0.00 | 0.00 | 86 | 1021.5 |
| 20260506190346 | 57 | 191 | 4.0 | 7.0 | 0.00 | 0.00 | 0.00 | 87 | 1021.5 |
| 20260506185354 | 57 | 214 | 0.0 | 5.0 | 0.00 | 0.00 | 0.00 | 87 | 1021.5 |
| 20260506184349 | 57 | 199 | 3.0 | 6.0 | 0.00 | 0.00 | 0.00 | 87 | 1021.4 |
| 20260506182346 | 57 | 195 | 2.0 | 6.0 | 0.00 | 0.00 | 0.00 | 86 | 1021.4 |
| 20260506181318 | 57 | 165 | 2.0 | 5.0 | 0.00 | 0.00 | 0.00 | 88 | 1021.3 |
| 20260506180340 | 57 | 204 | 1.0 | 6.0 | 0.00 | 0.00 | 0.00 | 88 | 1021.4 |
| 20260506175343 | 57 | 188 | 5.0 | 8.0 | 0.00 | 0.00 | 0.00 | 87 | 1021.2 |
| 20260506174332 | 57 | 194 | 2.0 | 6.0 | 0.00 | 0.00 | 0.00 | 87 | 1021.3 |
| 20260506173348 | 57 | 150 | 3.0 | 10.0 | 0.00 | 0.00 | 0.00 | 87 | 1021.1 |
| 20260506172326 | 58 | 135 | 4.0 | 8.0 | 0.00 | 0.00 | 0.00 | 88 | 1020.7 |
| 20260506171337 | 57 | 140 | 1.0 | 6.0 | 0.00 | 0.00 | 0.00 | 89 | 1021.0 |
| 20260506170343 | 57 | 126 | 2.0 | 4.0 | 0.00 | 0.00 | 0.00 | 89 | 1021.2 |
| 20260506165317 | 57 | 130 | 2.0 | 4.0 | 0.00 | 0.00 | 0.00 | 90 | 1021.1 |
| 20260506164322 | 56 | 142 | 2.0 | 4.0 | 0.00 | 0.00 | 0.00 | 90 | 1021.0 |
| 20260506163327 | 56 | 183 | 1.0 | 2.0 | 0.00 | 0.00 | 0.00 | 91 | 1021.2 |
| 20260506162336 | 56 | 183 | 0.0 | 4.0 | 0.00 | 0.00 | 0.00 | 91 | 1021.2 |
| 20260506161346 | 56 | 198 | 1.0 | 4.0 | 0.00 | 0.00 | 0.00 | 91 | 1021.0 |
| 20260506160334 | 55 | 187 | 3.0 | 4.0 | 0.00 | 0.00 | 0.00 | 91 | 1021.0 |
| 20260506155355 | 55 | 204 | 2.0 | 5.0 | 0.00 | 0.00 | 0.00 | 92 | 1021.0 |
| 20260506154343 | 55 | 161 | 1.0 | 5.0 | 0.00 | 0.00 | 0.00 | 93 | 1020.7 |
| 20260506153318 | 55 | 204 | 2.0 | 5.0 | 0.00 | 0.00 | 0.00 | 93 | 1020.6 |
| 20260506070343 | 54 | 346 | 1.0 | 4.0 | 0.00 | 0.00 | 0.00 | 89 | 1017.8 |
| 20260506062332 | 55 | 335 | 4.0 | 6.0 | 0.00 | 0.00 | 0.00 | 89 | 1017.8 |
| 20260506061335 | 55 | 351 | 3.0 | 7.0 | 0.00 | 0.00 | 0.00 | 91 | 1017.7 |
| 20260506060327 | 54 | 299 | 0.0 | 0.0 | 0.00 | 0.00 | 0.00 | 91 | 1017.6 |
| 20260506051331 | 56 | 188 | 0.0 | 0.0 | 0.00 | 0.00 | 0.00 | 89 | 1017.1 |
| 20260506050322 | 56 | 188 | 0.0 | 0.0 | 0.00 | 0.00 | 0.00 | 88 | 1017.0 |
| 20260506044337 | 57 | 188 | 0.0 | 0.0 | 0.00 | 0.00 | 0.00 | 88 | 1017.0 |
| 20260506043328 | 58 | 188 | 0.0 | 0.0 | 0.00 | 0.00 | 0.00 | 87 | 1016.8 |
| 20260506042339 | 58 | 188 | 0.0 | 0.0 | 0.00 | 0.00 | 0.00 | 86 | 1016.7 |
| 20260506041351 | 59 | 188 | 0.0 | 0.0 | 0.00 | 0.00 | 0.00 | 85 | 1016.7 |
| 20260506040315 | 59 | 188 | 0.0 | 0.0 | 0.00 | 0.00 | 0.00 | 85 | 1016.6 |
| 20260506035329 | 60 | 188 | 0.0 | 0.0 | 0.00 | 0.00 | 0.00 | 83 | 1016.4 |
| 20260506034344 | 61 | 188 | 0.0 | 1.0 | 0.00 | 0.00 | 0.00 | 82 | 1016.5 |
| 20260506033339 | 62 | 188 | 0.0 | 1.0 | 0.00 | 0.00 | 0.00 | 81 | 1016.5 |
| 20260506032328 | 63 | 188 | 0.0 | 0.0 | 0.00 | 0.00 | 0.00 | 79 | 1016.2 |
| 20260506031343 | 63 | 188 | 0.0 | 0.0 | 0.00 | 0.00 | 0.00 | 77 | 1016.3 |
| 20260506013331 | 65 | 121 | 2.0 | 8.0 | 0.00 | 0.00 | 0.00 | 72 | 1016.1 |
| 20260506012332 | 65 | 190 | 5.0 | 7.0 | 0.00 | 0.00 | 0.00 | 71 | 1016.1 |
| 20260506011406 | 65 | 279 | 1.0 | 8.0 | 0.00 | 0.00 | 0.00 | 72 | 1016.1 |
| 20260506010335 | 65 | 174 | 3.0 | 6.0 | 0.00 | 0.00 | 0.00 | 72 | 1016.2 |
| 20260506005338 | 65 | 173 | 2.0 | 7.0 | 0.00 | 0.00 | 0.00 | 72 | 1016.2 |
| 20260506004324 | 65 | 194 | 2.0 | 5.0 | 0.00 | 0.00 | 0.00 | 72 | 1016.2 |
| 20260506003319 | 66 | 148 | 3.0 | 7.0 | 0.00 | 0.00 | 0.00 | 72 | 1016.3 |
| 20260506002338 | 65 | 137 | 1.0 | 6.0 | 0.00 | 0.00 | 0.00 | 71 | 1016.3 |
| 20260506001352 | 65 | 336 | 2.0 | 7.0 | 0.00 | 0.00 | 0.00 | 71 | 1016.3 |